Orbital Elements at Epoch 2459000.5 (2020-May-31.0) TDB
Reference: JPL 20 (heliocentric ecliptic J2000)
Element | Value | Uncertainty (1-sigma) | Units |
e | .08572103248503375 | 5.6462e-08 | |
a | 2.536484152649266 | 2.1959e-08 | au |
q | 2.319054112202245 | 1.4749e-07 | au |
i | 14.0997280272032 | 7.3485e-06 | deg |
node | 268.031483012927 | 2.1167e-05 | deg |
peri | 223.9520224612361 | 4.9072e-05 | deg |
M | 338.5148069744258 | 4.62e-05 | deg |
tp | 2459088.560960041829 (2020-Aug-27.06096004) | 0.00018956 | TDB |
period | 1475.525287453689 4.04 | 1.9161e-05 5.246e-08 | d yr |
n | .2439809083999172 | 3.1683e-09 | deg/d |
Q | 2.753914193096287 | 2.3841e-08 | au |
|
| | Orbit Determination Parameters
Additional Information
|